CCA9810 ZJHK-ZSHC

Flight info

Callsign CCA9810
Flight time 2h 5m
Altitude 37100
Route AGTEL W71 LH DCT GYA B330 POU G471 SHL W26 UPRIK W41 OMDUP G471 EGEDA G471 PLT A599 ELNEX
Aircraft A319/M-SDE3FGHIRWY/LB1

Departure

Time 2026-04-21 12:41
Airport Haikou Meilan International Airport (ZJHK)

Arrival

Time 2026-04-21 14:47
Airport Hangzhou Xiaoshan International Airport (ZSHC)
Time Latitude Longitude Altitude Speed Heading
2026-04-21 12:19 19.93884 110.45380 84 ft 0 kts
2026-04-21 12:30 19.93865 110.45379 90 ft 4 kts
2026-04-21 12:30 19.93838 110.45378 82 ft 4 kts 355°
2026-04-21 12:31 19.93815 110.45385 82 ft 3 kts 321°
2026-04-21 12:31 19.93801 110.45407 84 ft 4 kts 274°
2026-04-21 12:31 19.93801 110.45434 84 ft 2 kts 269°
2026-04-21 12:31 19.93801 110.45436 84 ft 0 kts 270°
2026-04-21 12:34 19.93801 110.45434 84 ft 1 kts 270°
2026-04-21 12:34 19.93801 110.45413 83 ft 4 kts 269°
2026-04-21 12:35 19.93801 110.45372 82 ft 7 kts 269°
2026-04-21 12:35 19.93801 110.45312 80 ft 10 kts 270°
2026-04-21 12:35 19.93801 110.45234 80 ft 11 kts 270°
2026-04-21 12:35 19.93801 110.45151 80 ft 11 kts 270°
2026-04-21 12:36 19.93828 110.45084 82 ft 11 kts 341°
2026-04-21 12:36 19.93910 110.45083 79 ft 13 kts 360°
2026-04-21 12:36 19.94015 110.45083 73 ft 17 kts 360°
2026-04-21 12:36 19.94142 110.45082 69 ft 19 kts 359°
2026-04-21 12:37 19.94283 110.45081 69 ft 21 kts 360°
2026-04-21 12:37 19.94438 110.45080 62 ft 23 kts 360°
2026-04-21 12:37 19.94599 110.45080 57 ft 23 kts 360°
2026-04-21 12:37 19.94766 110.45079 52 ft 25 kts 360°
2026-04-21 12:38 19.94918 110.45079 52 ft 19 kts 360°
2026-04-21 12:38 19.95051 110.45078 54 ft 16 kts 360°
2026-04-21 12:38 19.95141 110.45078 53 ft 12 kts 360°
2026-04-21 12:38 19.95205 110.45056 52 ft 8 kts 291°
2026-04-21 12:39 19.95208 110.44992 52 ft 9 kts 290°
2026-04-21 12:39 19.95266 110.44984 51 ft 9 kts
2026-04-21 12:39 19.95335 110.44984 51 ft 10 kts
2026-04-21 12:39 19.95374 110.45004 52 ft 5 kts 62°
2026-04-21 12:40 19.95375 110.45028 52 ft 0 kts 94°
2026-04-21 12:40 19.95374 110.45047 52 ft 11 kts 92°
2026-04-21 12:40 19.95373 110.45407 55 ft 84 kts 90°
2026-04-21 12:40 19.95375 110.46250 56 ft 142 kts 90°
2026-04-21 12:41 19.95386 110.47443 135 ft 177 kts 92°
2026-04-21 12:41 19.95414 110.48718 811 ft 173 kts 85°
2026-04-21 12:41 19.96017 110.49845 1348 ft 188 kts 41°
2026-04-21 12:41 19.97302 110.50210 1808 ft 203 kts 351°
2026-04-21 12:42 19.98720 110.49755 2062 ft 224 kts 336°
2026-04-21 12:42 20.00238 110.49076 2335 ft 249 kts 334°
2026-04-21 12:42 20.01872 110.48303 2960 ft 260 kts 333°
2026-04-21 12:42 20.03531 110.47523 3835 ft 261 kts 334°
2026-04-21 12:43 20.05196 110.46754 4717 ft 261 kts 334°
2026-04-21 12:43 20.06873 110.45992 5529 ft 264 kts 334°
2026-04-21 12:43 20.08576 110.45228 6286 ft 268 kts 335°
2026-04-21 12:43 20.10307 110.44457 7052 ft 271 kts 335°
2026-04-21 12:44 20.12055 110.43684 7848 ft 272 kts 335°
2026-04-21 12:44 20.13808 110.42910 8654 ft 274 kts 335°
2026-04-21 12:44 20.15572 110.42130 9464 ft 275 kts 335°
2026-04-21 12:44 20.17342 110.41346 10208 ft 276 kts 334°
2026-04-21 12:45 20.19123 110.40557 10939 ft 278 kts 334°
2026-04-21 12:45 20.20915 110.39762 11669 ft 280 kts 334°
2026-04-21 12:45 20.22721 110.38964 12400 ft 281 kts 334°
2026-04-21 12:45 20.24533 110.38162 13137 ft 283 kts 334°
2026-04-21 12:46 20.26377 110.37386 13727 ft 292 kts 336°
2026-04-21 12:46 20.28373 110.36652 13855 ft 316 kts 339°
2026-04-21 12:46 20.30543 110.35914 13974 ft 338 kts 340°
2026-04-21 12:46 20.32851 110.35154 14164 ft 355 kts 340°
2026-04-21 12:47 20.35234 110.34372 14630 ft 361 kts 340°
2026-04-21 12:47 20.37646 110.33572 15184 ft 364 kts 340°
2026-04-21 12:47 20.40041 110.32767 15741 ft 367 kts 340°
2026-04-21 12:47 20.42480 110.31933 16305 ft 369 kts 340°
2026-04-21 12:48 20.44967 110.31075 16865 ft 372 kts 340°
2026-04-21 12:48 20.47404 110.30231 17403 ft 375 kts 340°
2026-04-21 12:48 20.49990 110.29580 17938 ft 380 kts 350°
2026-04-21 12:48 20.52655 110.29490 18419 ft 386 kts
2026-04-21 12:49 20.55311 110.29671 18862 ft 389 kts
2026-04-21 12:49 20.58062 110.29857 19324 ft 392 kts
2026-04-21 12:49 20.60762 110.30037 19772 ft 395 kts
2026-04-21 12:49 20.63514 110.30217 20222 ft 398 kts
2026-04-21 12:50 20.66296 110.30398 20674 ft 401 kts
2026-04-21 12:50 20.69090 110.30582 21127 ft 404 kts
2026-04-21 12:50 20.71914 110.30769 21572 ft 407 kts
2026-04-21 12:50 20.74756 110.30956 22019 ft 410 kts
2026-04-21 12:51 20.77500 110.31136 22434 ft 413 kts
2026-04-21 12:51 20.80376 110.31324 22854 ft 415 kts
2026-04-21 12:51 20.83244 110.31510 23261 ft 418 kts
2026-04-21 12:51 20.86157 110.31700 23618 ft 421 kts
2026-04-21 12:52 20.89092 110.31891 23970 ft 423 kts
2026-04-21 12:52 20.92032 110.32084 24321 ft 425 kts
2026-04-21 12:52 20.94125 110.32223 24572 ft 426 kts
2026-04-21 12:52 20.97087 110.32420 24923 ft 428 kts
2026-04-21 12:53 21.00067 110.32616 25258 ft 429 kts
2026-04-21 12:53 21.03058 110.32795 25611 ft 431 kts 360°
2026-04-21 12:53 21.06062 110.32956 25945 ft 433 kts 359°
2026-04-21 12:53 21.09075 110.33220 26269 ft 437 kts
2026-04-21 12:54 21.12038 110.34047 26598 ft 444 kts 17°
2026-04-21 12:54 21.14836 110.35501 26916 ft 451 kts 28°
2026-04-21 12:54 21.16538 110.36789 27124 ft 455 kts 36°
2026-04-21 12:54 21.18846 110.39144 27430 ft 460 kts 43°
2026-04-21 12:55 21.21088 110.41607 27730 ft 463 kts 43°
2026-04-21 12:55 21.24082 110.44886 28122 ft 465 kts 42°
2026-04-21 12:55 21.26354 110.47368 28430 ft 468 kts 42°
2026-04-21 12:56 21.28146 110.49327 28652 ft 469 kts 42°
2026-04-21 12:56 21.30437 110.51829 28950 ft 471 kts 42°
2026-04-21 12:56 21.32739 110.54342 29229 ft 473 kts 42°
2026-04-21 12:56 21.35053 110.56869 29512 ft 476 kts 42°
2026-04-21 12:57 21.37373 110.59408 29789 ft 478 kts 42°
2026-04-21 12:57 21.39703 110.61961 30036 ft 480 kts 42°
2026-04-21 12:57 21.42041 110.64522 30269 ft 481 kts 42°
2026-04-21 12:57 21.44389 110.67092 30502 ft 483 kts 43°
2026-04-21 12:58 21.46745 110.69676 30733 ft 485 kts 43°
2026-04-21 12:58 21.49103 110.72266 30966 ft 486 kts 43°
2026-04-21 12:58 21.51438 110.74835 31219 ft 487 kts 43°
2026-04-21 12:58 21.53803 110.77439 31559 ft 486 kts 43°
2026-04-21 12:59 21.56158 110.80032 31885 ft 485 kts 43°
2026-04-21 12:59 21.58514 110.82625 32221 ft 484 kts 44°
2026-04-21 12:59 21.60861 110.85208 32558 ft 483 kts 44°
2026-04-21 12:59 21.63210 110.87796 32895 ft 482 kts 44°
2026-04-21 13:00 21.65548 110.90374 33234 ft 482 kts 44°
2026-04-21 13:00 21.67886 110.92952 33588 ft 481 kts 44°
2026-04-21 13:00 21.70219 110.95525 33941 ft 480 kts 44°
2026-04-21 13:00 21.72549 110.98092 34244 ft 479 kts 44°
2026-04-21 13:01 21.74873 111.00656 34535 ft 478 kts 44°
2026-04-21 13:01 21.77195 111.03220 34832 ft 477 kts 44°
2026-04-21 13:01 21.79509 111.05777 35125 ft 476 kts 44°
2026-04-21 13:01 21.81820 111.08330 35411 ft 475 kts 44°
2026-04-21 13:02 21.84124 111.10877 35702 ft 474 kts 44°
2026-04-21 13:02 21.86418 111.13420 35980 ft 473 kts 44°
2026-04-21 13:02 21.90969 111.18467 36498 ft 472 kts 44°
2026-04-21 13:03 21.93251 111.20995 36761 ft 471 kts 43°
2026-04-21 13:03 21.95537 111.23528 36954 ft 471 kts 43°
2026-04-21 13:03 22.00097 111.28580 37008 ft 469 kts 44°
2026-04-21 13:04 22.04636 111.33617 37010 ft 468 kts 44°
2026-04-21 13:04 22.09166 111.38653 37008 ft 468 kts 44°
2026-04-21 13:05 22.13694 111.43698 37006 ft 468 kts 44°
2026-04-21 13:05 22.18222 111.48737 37006 ft 468 kts 44°
2026-04-21 13:06 22.22751 111.53781 37011 ft 468 kts 44°
2026-04-21 13:06 22.27279 111.58830 37005 ft 468 kts 44°
2026-04-21 13:07 22.31771 111.63848 37010 ft 468 kts 44°
2026-04-21 13:07 22.36294 111.68910 37001 ft 468 kts 44°
2026-04-21 13:08 22.40813 111.73971 37001 ft 468 kts 44°
2026-04-21 13:08 22.45329 111.79040 37003 ft 468 kts 44°
2026-04-21 13:09 22.49846 111.84107 36995 ft 468 kts 44°
2026-04-21 13:09 22.54357 111.89174 36996 ft 468 kts 44°
2026-04-21 13:10 22.58871 111.94245 36991 ft 468 kts 44°
2026-04-21 13:10 22.63356 111.99287 36993 ft 468 kts 44°
2026-04-21 13:11 22.67872 112.04369 36992 ft 469 kts 44°
2026-04-21 13:11 22.72383 112.09462 36995 ft 469 kts 44°
2026-04-21 13:12 22.76906 112.14564 36996 ft 469 kts 44°
2026-04-21 13:12 22.81430 112.19668 36992 ft 469 kts 43°
2026-04-21 13:13 22.85945 112.24776 36989 ft 469 kts 43°
2026-04-21 13:13 22.90435 112.29860 36987 ft 470 kts 43°
2026-04-21 13:14 22.94955 112.34979 36986 ft 470 kts 43°
2026-04-21 13:14 22.99478 112.40108 36993 ft 471 kts 43°
2026-04-21 13:15 23.03724 112.45526 36991 ft 475 kts 57°
2026-04-21 13:15 23.05206 112.48734 36988 ft 478 kts 68°
2026-04-21 13:15 23.06121 112.52209 36987 ft 480 kts 79°
2026-04-21 13:16 23.06448 112.55816 36981 ft 481 kts 90°
2026-04-21 13:16 23.06274 112.59437 36982 ft 481 kts 94°
2026-04-21 13:16 23.05790 112.66692 36975 ft 482 kts 94°
2026-04-21 13:17 23.05301 112.73948 36980 ft 482 kts 94°
2026-04-21 13:17 23.04801 112.81215 36980 ft 483 kts 94°
2026-04-21 13:18 23.04306 112.88486 36983 ft 483 kts 94°
2026-04-21 13:18 23.03810 112.95715 36981 ft 483 kts 94°
2026-04-21 13:19 23.03304 113.02991 36983 ft 484 kts 94°
2026-04-21 13:19 23.02787 113.10274 36981 ft 484 kts 94°
2026-04-21 13:20 23.02286 113.17552 36983 ft 483 kts 91°
2026-04-21 13:20 23.02802 113.24804 36981 ft 482 kts 82°
2026-04-21 13:21 23.03590 113.32037 36989 ft 483 kts 82°
2026-04-21 13:21 23.04356 113.39286 36988 ft 483 kts 82°
2026-04-21 13:22 23.04945 113.44849 36996 ft 483 kts 82°
2026-04-21 13:22 23.05715 113.52099 36994 ft 483 kts 82°
2026-04-21 13:23 23.06485 113.59352 37004 ft 483 kts 82°
2026-04-21 13:23 23.07246 113.66553 37004 ft 483 kts 82°
2026-04-21 13:24 23.08007 113.73804 37009 ft 483 kts 81°
2026-04-21 13:24 23.08705 113.77357 37011 ft 480 kts 69°
2026-04-21 13:24 23.10022 113.80659 37006 ft 475 kts 57°
2026-04-21 13:25 23.11896 113.83585 37004 ft 469 kts 45°
2026-04-21 13:25 23.14229 113.86020 37005 ft 463 kts 33°
2026-04-21 13:25 23.16908 113.87899 37003 ft 457 kts 22°
2026-04-21 13:25 23.19824 113.89215 37002 ft 452 kts 15°
2026-04-21 13:26 23.25746 113.91542 36998 ft 453 kts 16°
2026-04-21 13:26 23.31662 113.93893 37006 ft 453 kts 16°
2026-04-21 13:27 23.37580 113.96259 37003 ft 453 kts 16°
2026-04-21 13:27 23.43500 113.98616 37013 ft 453 kts 15°
2026-04-21 13:28 23.49369 114.01145 37013 ft 458 kts 24°
2026-04-21 13:28 23.54618 114.05158 37019 ft 463 kts 33°
2026-04-21 13:29 23.59717 114.09450 37026 ft 463 kts 33°
2026-04-21 13:29 23.64790 114.13711 37030 ft 463 kts 33°
2026-04-21 13:30 23.69892 114.18003 37034 ft 463 kts 33°
2026-04-21 13:30 23.74986 114.22296 37035 ft 463 kts 33°
2026-04-21 13:31 23.80079 114.26585 37030 ft 462 kts 33°
2026-04-21 13:31 23.85178 114.30857 37030 ft 461 kts 32°
2026-04-21 13:32 23.90287 114.35018 37036 ft 462 kts 31°
2026-04-21 13:32 23.95487 114.39223 37032 ft 461 kts 31°
2026-04-21 13:33 24.00588 114.43391 37032 ft 461 kts 32°
2026-04-21 13:33 24.05717 114.47612 37033 ft 461 kts 32°
2026-04-21 13:34 24.10845 114.51834 37030 ft 461 kts 32°
2026-04-21 13:34 24.15977 114.56053 37039 ft 461 kts 31°
2026-04-21 13:35 24.21111 114.60277 37027 ft 461 kts 31°
2026-04-21 13:35 24.26237 114.64492 37027 ft 461 kts 31°
2026-04-21 13:36 24.31369 114.68722 37019 ft 461 kts 31°
2026-04-21 13:36 24.36499 114.72952 37031 ft 462 kts 31°
2026-04-21 13:37 24.41635 114.77188 37020 ft 462 kts 31°
2026-04-21 13:37 24.46769 114.81431 37013 ft 462 kts 31°
2026-04-21 13:38 24.51904 114.85683 37019 ft 462 kts 31°
2026-04-21 13:38 24.57027 114.89936 37017 ft 461 kts 31°
2026-04-21 13:39 24.62537 114.93299 37014 ft 447 kts 13°
2026-04-21 13:39 24.68512 114.94929 37013 ft 442 kts
2026-04-21 13:40 24.74474 114.96402 37010 ft 442 kts
2026-04-21 13:40 24.80478 114.97893 37007 ft 442 kts
2026-04-21 13:41 24.86490 114.99353 37008 ft 443 kts
2026-04-21 13:41 24.92509 115.00818 37011 ft 443 kts
2026-04-21 13:42 24.98533 115.02288 37015 ft 443 kts
2026-04-21 13:42 25.04556 115.03755 37020 ft 443 kts
2026-04-21 13:43 25.10585 115.05228 37014 ft 443 kts
2026-04-21 13:43 25.16604 115.06700 37017 ft 443 kts
2026-04-21 13:44 25.22626 115.08173 37020 ft 443 kts
2026-04-21 13:44 25.28613 115.09639 37022 ft 443 kts
2026-04-21 13:45 25.34644 115.10148 37023 ft 429 kts 348°
2026-04-21 13:45 25.40258 115.08402 37021 ft 415 kts 330°
2026-04-21 13:46 25.45496 115.05686 37014 ft 416 kts 331°
2026-04-21 13:46 25.50752 115.02993 37018 ft 416 kts 331°
2026-04-21 13:47 25.56004 115.00298 37016 ft 416 kts 331°
2026-04-21 13:47 25.61246 114.97600 37017 ft 416 kts 331°
2026-04-21 13:48 25.66495 114.94907 37011 ft 416 kts 330°
2026-04-21 13:48 25.71739 114.92200 37007 ft 416 kts 330°
2026-04-21 13:49 25.76245 114.90303 37002 ft 424 kts 345°
2026-04-21 13:49 25.79219 114.90144 37004 ft 435 kts
2026-04-21 13:49 25.82203 114.90905 37001 ft 448 kts 15°
2026-04-21 13:50 25.84958 114.92599 36993 ft 461 kts 32°
2026-04-21 13:50 25.87303 114.95085 36989 ft 469 kts 41°
2026-04-21 13:50 25.92484 115.01255 36983 ft 471 kts 41°
2026-04-21 13:51 25.96223 115.05732 36984 ft 472 kts 41°
2026-04-21 13:51 26.00682 115.11039 36989 ft 473 kts 41°
2026-04-21 13:52 26.05183 115.16388 36999 ft 474 kts 41°
2026-04-21 13:52 26.09681 115.21741 37006 ft 474 kts 41°
2026-04-21 13:53 26.14175 115.27104 37009 ft 474 kts 41°
2026-04-21 13:53 26.18669 115.32476 37010 ft 474 kts 41°
2026-04-21 13:54 26.23158 115.37846 37012 ft 474 kts 41°
2026-04-21 13:54 26.27648 115.43215 37015 ft 474 kts 41°
2026-04-21 13:55 26.32134 115.48598 37016 ft 474 kts 41°
2026-04-21 13:55 26.36623 115.53994 37018 ft 474 kts 41°
2026-04-21 13:56 26.41119 115.59382 37024 ft 475 kts 41°
2026-04-21 13:56 26.45581 115.64741 37023 ft 474 kts 41°
2026-04-21 13:57 26.50065 115.70149 37012 ft 474 kts 41°
2026-04-21 13:57 26.54545 115.75556 37012 ft 475 kts 41°
2026-04-21 13:58 26.59033 115.80964 37016 ft 474 kts 41°
2026-04-21 13:58 26.63511 115.86379 37020 ft 475 kts 41°
2026-04-21 13:59 26.67964 115.91773 37022 ft 475 kts 41°
2026-04-21 13:59 26.72444 115.97212 37023 ft 475 kts 41°
2026-04-21 14:00 26.76918 116.02642 37029 ft 475 kts 41°
2026-04-21 14:00 26.81409 116.08088 37026 ft 475 kts 41°
2026-04-21 14:01 26.85889 116.13529 37025 ft 475 kts 41°
2026-04-21 14:01 26.90329 116.18933 37022 ft 474 kts 41°
2026-04-21 14:02 26.94797 116.24373 37022 ft 474 kts 40°
2026-04-21 14:03 27.01532 116.32483 37018 ft 473 kts 40°
2026-04-21 14:03 27.06015 116.37889 37023 ft 473 kts 40°
2026-04-21 14:04 27.10486 116.43294 37030 ft 472 kts 40°
2026-04-21 14:04 27.14958 116.48696 37017 ft 472 kts 40°
2026-04-21 14:05 27.19385 116.54056 37018 ft 471 kts 40°
2026-04-21 14:05 27.23856 116.59425 37019 ft 470 kts 39°
2026-04-21 14:06 27.28402 116.64693 37019 ft 469 kts 39°
2026-04-21 14:06 27.32967 116.69945 37017 ft 469 kts 39°
2026-04-21 14:07 27.37471 116.75188 37015 ft 469 kts 39°
2026-04-21 14:07 27.41991 116.80480 37019 ft 469 kts 39°
2026-04-21 14:08 27.46515 116.85767 37017 ft 468 kts 39°
2026-04-21 14:08 27.51027 116.91052 37018 ft 468 kts 39°
2026-04-21 14:09 27.55539 116.96322 37017 ft 466 kts 39°
2026-04-21 14:09 27.60070 117.01539 37020 ft 466 kts 38°
2026-04-21 14:10 27.64597 117.06757 37017 ft 466 kts 39°
2026-04-21 14:10 27.69112 117.11991 37022 ft 466 kts 39°
2026-04-21 14:11 27.73625 117.17242 37009 ft 465 kts 39°
2026-04-21 14:11 27.78138 117.22487 37006 ft 465 kts 38°
2026-04-21 14:12 27.82651 117.27727 37001 ft 466 kts 38°
2026-04-21 14:12 27.87145 117.32953 37003 ft 466 kts 39°
2026-04-21 14:13 27.91654 117.38216 37004 ft 466 kts 38°
2026-04-21 14:13 27.96159 117.43492 36996 ft 467 kts 39°
2026-04-21 14:14 28.00685 117.48784 36990 ft 467 kts 38°
2026-04-21 14:14 28.05215 117.54070 36993 ft 468 kts 39°
2026-04-21 14:15 28.09746 117.59374 36990 ft 469 kts 39°
2026-04-21 14:15 28.14274 117.64692 36989 ft 469 kts 39°
2026-04-21 14:16 28.18800 117.70014 36986 ft 469 kts 39°
2026-04-21 14:16 28.23333 117.75350 36988 ft 470 kts 39°
2026-04-21 14:17 28.27870 117.80694 36984 ft 471 kts 39°
2026-04-21 14:17 28.32386 117.86013 36989 ft 471 kts 39°
2026-04-21 14:18 28.36932 117.91372 36987 ft 472 kts 39°
2026-04-21 14:18 28.41477 117.96758 36988 ft 473 kts 39°
2026-04-21 14:19 28.45984 118.02211 36991 ft 474 kts 40°
2026-04-21 14:19 28.50448 118.07733 36993 ft 475 kts 41°
2026-04-21 14:20 28.54913 118.13273 36997 ft 475 kts 41°
2026-04-21 14:20 28.59396 118.18804 37000 ft 476 kts 41°
2026-04-21 14:21 28.63889 118.24339 37005 ft 476 kts 41°
2026-04-21 14:21 28.68379 118.29890 37009 ft 477 kts 41°
2026-04-21 14:22 28.72868 118.35453 37012 ft 477 kts 41°
2026-04-21 14:22 28.77364 118.41030 37015 ft 478 kts 41°
2026-04-21 14:23 28.81831 118.46567 37005 ft 478 kts 41°
2026-04-21 14:23 28.86339 118.52163 37007 ft 479 kts 42°
2026-04-21 14:24 28.90848 118.57774 37008 ft 481 kts 42°
2026-04-21 14:24 28.93110 118.60593 36856 ft 482 kts 42°
2026-04-21 14:24 28.95385 118.63429 35567 ft 489 kts 43°
2026-04-21 14:24 28.97715 118.66332 34085 ft 500 kts 44°
2026-04-21 14:25 29.00079 118.69281 32750 ft 504 kts 44°
2026-04-21 14:25 29.02433 118.72227 31845 ft 497 kts 44°
2026-04-21 14:25 29.04717 118.75096 31303 ft 482 kts 44°
2026-04-21 14:25 29.06944 118.77892 30651 ft 471 kts 44°
2026-04-21 14:26 29.09131 118.80635 30039 ft 465 kts 44°
2026-04-21 14:26 29.11304 118.83355 29330 ft 465 kts 44°
2026-04-21 14:26 29.13485 118.86086 28734 ft 462 kts 44°
2026-04-21 14:26 29.15646 118.88796 28119 ft 460 kts 44°
2026-04-21 14:27 29.17797 118.91495 27506 ft 458 kts 44°
2026-04-21 14:27 29.19941 118.94189 26903 ft 457 kts 44°
2026-04-21 14:27 29.22075 118.96875 26311 ft 455 kts 44°
2026-04-21 14:27 29.24194 118.99541 25793 ft 451 kts 44°
2026-04-21 14:28 29.26301 119.02193 25269 ft 449 kts 44°
2026-04-21 14:28 29.28395 119.04831 24766 ft 446 kts 44°
2026-04-21 14:28 29.30478 119.07459 24263 ft 444 kts 44°
2026-04-21 14:28 29.32519 119.10038 23780 ft 442 kts 44°
2026-04-21 14:29 29.34582 119.12645 23244 ft 441 kts 44°
2026-04-21 14:29 29.36631 119.15237 22760 ft 438 kts 44°
2026-04-21 14:29 29.38669 119.17818 22280 ft 435 kts 44°
2026-04-21 14:29 29.40692 119.20379 21793 ft 433 kts 44°
2026-04-21 14:30 29.42705 119.22934 21314 ft 430 kts 45°
2026-04-21 14:30 29.44708 119.25478 20815 ft 429 kts 45°
2026-04-21 14:30 29.46702 119.28012 20321 ft 426 kts 45°
2026-04-21 14:30 29.48683 119.30534 19808 ft 425 kts 45°
2026-04-21 14:31 29.50664 119.33055 19296 ft 424 kts 45°
2026-04-21 14:31 29.52637 119.35570 18777 ft 424 kts 45°
2026-04-21 14:31 29.54605 119.38083 18259 ft 423 kts 46°
2026-04-21 14:31 29.56572 119.40593 17681 ft 421 kts 46°
2026-04-21 14:32 29.58530 119.43084 17175 ft 418 kts 46°
2026-04-21 14:32 29.60470 119.45553 16664 ft 415 kts 45°
2026-04-21 14:32 29.62410 119.47996 16147 ft 412 kts 43°
2026-04-21 14:32 29.64585 119.50108 15650 ft 407 kts 32°
2026-04-21 14:33 29.66889 119.51901 15156 ft 405 kts 31°
2026-04-21 14:33 29.69208 119.53705 14663 ft 401 kts 31°
2026-04-21 14:33 29.71513 119.55499 14164 ft 399 kts 31°
2026-04-21 14:33 29.73810 119.57290 13678 ft 397 kts 31°
2026-04-21 14:34 29.76087 119.59071 13109 ft 396 kts 32°
2026-04-21 14:34 29.78349 119.60843 12675 ft 390 kts 32°
2026-04-21 14:34 29.79106 119.61436 12477 ft 390 kts 32°
2026-04-21 14:34 29.81159 119.63062 12076 ft 383 kts 32°
2026-04-21 14:35 29.83374 119.64808 11460 ft 384 kts 32°
2026-04-21 14:35 29.85411 119.66786 10899 ft 385 kts 45°
2026-04-21 14:35 29.87010 119.69237 10442 ft 382 kts 58°
2026-04-21 14:35 29.88384 119.71826 10146 ft 372 kts 58°
2026-04-21 14:36 29.89696 119.74325 10028 ft 357 kts 58°
2026-04-21 14:36 29.90956 119.76733 9920 ft 345 kts 58°
2026-04-21 14:36 29.92175 119.79057 9773 ft 333 kts 58°
2026-04-21 14:36 29.93365 119.81326 9254 ft 328 kts 58°
2026-04-21 14:37 29.94545 119.83566 8647 ft 325 kts 58°
2026-04-21 14:37 29.95699 119.85739 8100 ft 319 kts 58°
2026-04-21 14:37 29.96851 119.87905 7695 ft 316 kts 58°
2026-04-21 14:37 29.97996 119.90058 7291 ft 314 kts 58°
2026-04-21 14:38 29.99138 119.92206 6885 ft 314 kts 59°
2026-04-21 14:38 30.00293 119.94381 6283 ft 320 kts 59°
2026-04-21 14:38 30.01438 119.96544 5881 ft 312 kts 59°
2026-04-21 14:38 30.02562 119.98671 5267 ft 309 kts 60°
2026-04-21 14:39 30.03657 120.00745 4959 ft 294 kts 61°
2026-04-21 14:39 30.04701 120.02720 4549 ft 284 kts 62°
2026-04-21 14:39 30.05671 120.04678 4063 ft 277 kts 66°
2026-04-21 14:39 30.06547 120.06630 3593 ft 270 kts 68°
2026-04-21 14:40 30.07388 120.08524 3243 ft 260 kts 69°
2026-04-21 14:40 30.08195 120.10327 2987 ft 244 kts 68°
2026-04-21 14:40 30.08942 120.11991 2958 ft 223 kts 69°
2026-04-21 14:40 30.09623 120.13509 3006 ft 203 kts 69°
2026-04-21 14:41 30.10245 120.14903 2972 ft 190 kts 70°
2026-04-21 14:41 30.10857 120.16284 2971 ft 195 kts 70°
2026-04-21 14:41 30.11481 120.17683 2975 ft 199 kts 70°
2026-04-21 14:41 30.12123 120.19124 2975 ft 204 kts 70°
2026-04-21 14:42 30.12776 120.20583 2975 ft 205 kts 70°
2026-04-21 14:42 30.13431 120.22050 2967 ft 205 kts 71°
2026-04-21 14:42 30.14090 120.23528 2962 ft 209 kts 70°
2026-04-21 14:42 30.14757 120.25023 2973 ft 210 kts 70°
2026-04-21 14:43 30.15427 120.26523 2881 ft 209 kts 70°
2026-04-21 14:43 30.16083 120.27992 2659 ft 204 kts 70°
2026-04-21 14:43 30.16727 120.29436 2400 ft 201 kts 70°
2026-04-21 14:43 30.17353 120.30841 2138 ft 192 kts 69°
2026-04-21 14:44 30.17945 120.32169 1886 ft 180 kts 69°
2026-04-21 14:44 30.18491 120.33394 1670 ft 165 kts 69°
2026-04-21 14:44 30.18990 120.34512 1441 ft 148 kts 68°
2026-04-21 14:44 30.19443 120.35533 1250 ft 139 kts 69°
2026-04-21 14:45 30.19877 120.36513 1066 ft 135 kts 67°
2026-04-21 14:45 30.20305 120.37476 892 ft 133 kts 66°
2026-04-21 14:45 30.20720 120.38418 687 ft 129 kts 67°
2026-04-21 14:45 30.21127 120.39339 511 ft 128 kts 66°
2026-04-21 14:46 30.21533 120.40251 361 ft 128 kts 65°
2026-04-21 14:46 30.21943 120.41163 176 ft 126 kts 64°
2026-04-21 14:46 30.22338 120.42069 36 ft 123 kts 64°
2026-04-21 14:46 30.22668 120.42812 31 ft 81 kts 63°
2026-04-21 14:47 30.22803 120.43117 32 ft 48 kts 63°
2026-04-21 14:47 30.22915 120.43369 35 ft 30 kts 63°
2026-04-21 14:47 30.22995 120.43549 37 ft 17 kts 62°
2026-04-21 14:47 30.23057 120.43661 35 ft 17 kts 35°
2026-04-21 14:48 30.23076 120.43676 33 ft 13 kts 34°